SCP
0 0 0 0 0 0 0 0 0 0 0 0 0 0 0 0 0 0 0 0 0 0 0 0 0 0 0 0 0 0 0 0 0 0 0 0 0 0 0 0 0 0 0
0 0 0 0 0 0 0 0 0 0 0 0 0 0 0 0 0 0 0 0 0 0 0 0 0 0 0 0 0 0 0 0 0 0 0 0 0 0 0 0 0 0 0
0 0 0 0 0 0 0 0 0 0 0 0 0 0 0 0 0 0 0 0 0 0 0 0 0 0 0 0 0 0 0 0 0 0 0 0 0 0 0 0 0 0 0
0 0 0 0 0 0 0 0 0 0 0 0 0 0 0 0 0 0 0 0 0 0 0 0 0 0 0 0 0 0 0 0 0 0 0 0 0 0 0 0 0 0 0
0 0 0 0 0 0 0 0 0 0 0 0 0 0 0 0 0 0 0 0 0 0 0 0 0 0 0 0 0 0 0 0 0 0 0 0 0 0 0 0 0 0 0
0 0 0 0 0 0 0 0 0 0 0 0 0 0 0 0 0 0 0 0 0 0 0 0 0 0 0 0 0 0 0 0 0 0 0 0 0 0 0 0 0 0 0
0 0 0 0 0 0 0 0 0 0 0 0 0 0 0 0 0 0 0 0 0 0 0 0 0 0 0 0 0 0 0 0 0 0 0 0 0 0 0 0 0 0 0
0 0 0 0 0 0 0 0 0 0 0 0 0 0 0 0 0 0 0 0 0 0 0 0 0 0 0 0 0 0 0 0 0 0 0 0 0 0 0 0 0 0 0
0 0 0 0 0 0 0 0 0 0 0 0 0 0 0 0 0 0 0 0 0 0 0 0 0 0 0 0 0 0 0 0 0 0 0 0 0 0 0 0 0 0 0
0 0 0 0 0 0 0 0 0 0 0 0 0 0 0 0 0 0 0 0 0 0 0 0 0 0 0 0 0 0 0 0 0 0 0 0 0 0 0 0 0 0 0
0 0 0 0 0 0 0 0 0 0 0 0 0 0 0 0 0 0 0 0 0 0 0 0 0 0 0 0 0 0 0 0 0 0 0 0 0 0 0 0 0 0 0
0 0 0 0 0 0 0 0 0 0 0 0 0 0 0 0 0 0 0 0 0 0 0 0 0 0 0 0 0 0 0 0 0 0 0 0 0 0 0 0 0 0 0
0 0 0 0 0 0 0 0 0 0 0 0 0 0 0 0 0 0 0 0 0 0 0 0 0 0 0 0 0 0 0 0 0 0 0 0 0 0 0 0 0 0 0
0 0 0 0 0 0 0 0 0 0 0 0 0 0 0 0 0 0 0 0 0 0 0 0 0 0 0 0 0 0 0 0 0 0 0 0 0 0 0 0 0 0 0
0 0 0 0 0 0 0 0 0 0 0 0 0 0 0 0 0 0 0 0 0 0 0 0 0 0 0 0 0 0 0 0 0 0 0 0 0 0 0 0 0 0 0
0 0 0 0 0 0 0 0 0 0 0 0 0 0 0 0 0 0 0 0 0 0 0 0 0 0 0 0 0 0 0 0 0 0 0 0 0 0 0 0 0 0 0
0 0 0 0 0 0 0 0 0 0 0 0 0 0 0 0 0 0 0 0 0 0 0 0 0 0 0 0 0 0 0 0 0 0 0 0 0 0 0 0 0 0 0
0 0 0 0 0 0 0 0 0 0 0 0 0 0 0 0 0 0 0 0 0 0 0 0 0 0 0 0 0 0 0 0 0 0 0 0 0 0 0 0 0 0 0
0 0 0 0 0 0 0 0 0 0 0 0 0 0 0 0 0 0 0 0 0 0 0 0 0 0 0 0 0 0 0 0 0 0 0 0 0 0 0 0 0 0 0
0 0 0 0 0 0 0 0 0 0 0 0 0 0 0 0 0 0 0 0 0 0 0 0 0 0 0 0 0 0 0 0 0 0 0 0 0 0 0 0 0 0 0
-0 0 0 0 0 0 0 0 0 0 0 0 0 0 0 0 0 0 0 0 0 0 0 0 0 0 0 0 0 0 0 0 0 0 0 0 0 0 0 0 0 0 0
-0 -0 -0 -0 0 0 0 0 0 0 0 0 0 0 0 0 0 0 0 0 0 0 0 0 0 0 0 0 0 0 0 0 0 0 0 0 0 0 0 0 0 0 0
-0 -0 -0 -0 -0 0 0 0 0 0 0 0 0 0 0 0 0 0 0 0 0 0 0 0 0 0 0 0 0 0 0 0 0 0 0 0 0 0 0 0 0 0 0
-0 -0 -0 -0 -0 -0 0 0 0 0 0 0 0 0 0 0 0 0 0 0 0 0 0 0 0 0 0 0 0 0 0 0 0 0 0 0 0 0 0 0 0 0 0
-0 -0 -0 -0 -0 -0 -0 0 0 0 0 0 0 0 0 0 0 0 0 0 0 0 0 0 0 0 0 0 0 0 0 0 0 0 0 0 0 0 0 0 0 0 0
-0 -0 0 0 0 0 0 0 0 0 0 0 0 0 0 0 0 0 0 0 0 0 0 0 0 0 0 0 0 0 0 0 0 0 0 0 0 0 0 0 0 0 0
Wind_Speed_500mb
35 35 35 35 36 36 34 34 34 34 34 34 35 36 35 31 31 32 28 24 23 21 19 17 21 25 25 23 22 18 15 14 11 7 8 10 11 10 10 13 13 14 16
39 39 39 39 38 39 37 38 40 40 41 41 41 41 40 38 34 33 31 29 28 26 25 23 19 28 29 25 27 24 18 18 18 15 6 11 14 12 14 15 17 20 20
43 42 42 42 41 40 41 44 45 47 49 49 50 47 45 43 41 37 35 36 35 33 31 30 27 25 29 31 31 30 29 29 29 28 20 20 20 18 16 15 15 20 21
49 48 47 46 42 43 46 50 48 51 53 54 54 52 51 48 46 45 42 41 43 42 38 36 35 34 33 33 35 35 34 35 36 37 34 30 35 31 26 21 19 22 22
59 56 54 51 47 48 51 53 54 55 59 58 58 57 56 55 53 52 53 52 49 51 49 45 44 42 42 42 42 41 41 40 41 44 44 43 42 42 41 40 33 28 31
62 65 62 57 54 54 57 58 60 60 62 63 62 63 63 61 61 61 63 60 60 57 56 56 53 52 49 49 49 51 50 46 46 47 49 47 51 51 54 53 52 48 44
64 66 68 65 62 62 62 63 62 65 66 65 64 70 73 71 71 70 70 67 68 64 61 58 63 62 59 56 56 56 55 55 52 50 47 50 52 54 56 54 66 64 63
69 67 68 72 72 70 68 69 67 69 72 70 69 68 63 68 73 66 64 66 64 65 67 64 65 66 66 64 62 61 61 60 58 54 50 49 50 53 55 56 52 61 70
71 71 71 71 74 78 77 73 73 70 73 76 74 68 25 33 45 47 39 40 39 41 44 47 51 56 62 65 63 62 64 63 61 57 57 56 55 57 54 53 56 55 52
67 64 65 69 71 76 80 80 77 78 75 76 78 82 81 82 62 62 52 35 39 48 45 46 49 51 51 55 56 58 59 62 61 62 62 64 62 60 61 56 55 54 53
72 70 65 63 68 71 72 74 79 80 82 86 85 81 82 86 85 88 79 77 80 79 72 64 58 56 53 55 57 57 56 60 62 62 60 63 65 64 60 54 51 52 59
74 74 73 71 67 68 70 73 73 77 81 82 88 92 90 77 74 78 83 97 90 95 88 81 74 69 64 64 64 58 60 56 60 61 62 61 65 64 66 50 57 56 60
66 66 65 68 68 65 67 70 74 75 76 81 81 87 90 96 90 92 83 83 85 92 88 89 87 77 70 65 61 61 68 69 62 68 70 69 69 69 63 56 56 52 58
55 59 61 62 62 59 58 62 69 74 75 80 81 82 85 88 89 91 92 87 81 78 87 94 90 87 77 68 63 57 61 64 66 68 69 70 70 65 59 53 55 56 56
43 49 54 58 60 60 61 60 68 71 72 77 81 80 83 85 85 88 90 88 88 73 76 73 81 83 77 69 65 58 58 63 59 64 63 63 62 59 57 59 60 60 57
34 37 42 49 56 59 60 61 64 67 73 77 82 85 83 82 83 84 87 90 90 93 94 79 88 85 81 73 67 65 63 61 62 64 66 63 62 60 62 61 56 57 59
39 40 42 43 43 48 52 58 66 70 73 76 79 84 86 84 91 89 88 88 90 91 103 96 91 86 80 77 71 70 68 62 63 70 67 63 64 60 61 58 52 59 64
45 47 47 46 46 47 46 47 56 62 69 78 87 84 87 88 89 90 96 96 99 92 95 104 95 90 84 77 77 70 70 70 68 74 68 65 70 68 62 62 51 57 57
50 51 53 53 52 52 50 49 53 57 65 73 77 82 93 89 98 92 95 100 99 102 107 100 100 92 84 79 71 81 72 75 66 75 72 69 71 67 66 59 56 58 62
60 59 59 60 58 57 55 54 54 58 64 68 73 79 83 89 96 91 94 98 97 104 109 110 99 95 89 85 86 75 71 81 78 78 74 75 77 66 67 60 55 58 57
67 66 67 66 65 64 61 60 60 64 69 73 76 78 79 85 87 87 101 98 98 106 105 102 96 98 100 91 84 83 87 75 75 80 74 80 77 73 67 61 57 58 53
75 77 78 77 75 74 68 66 67 72 73 77 79 79 82 85 85 84 88 93 99 108 104 106 97 102 101 86 81 80 93 82 78 84 83 83 78 72 62 60 55 56 55
91 89 85 85 87 86 80 76 72 77 81 83 82 82 84 82 85 87 84 92 89 97 115 105 111 106 95 80 74 78 83 82 86 78 84 86 79 73 65 57 55 60 59
94 98 99 98 98 93 87 85 84 84 85 86 85 85 85 86 83 82 81 87 95 98 99 97 117 121 97 96 82 76 68 79 86 79 78 77 77 72 65 58 59 65 64
96 95 95 96 98 101 97 88 86 91 95 94 88 85 85 88 83 77 78 89 93 100 99 97 94 98 118 87 94 83 75 75 79 84 82 78 73 67 64 60 61 67 64
91 92 93 91 91 91 86 83 74 76 90 96 96 94 86 86 85 78 75 84 99 106 101 95 106 98 102 101 85 83 77 84 86 80 84 81 76 67 55 64 67 66 60
Wind_Direction_500mb
259 259 258 255 253 250 251 250 252 254 257 261 262 267 271 273 270 272 270 278 287 289 284 281 258 271 266 259 265 259 252 248 249 258 288 314 299 298 299 298 301 294 284
263 263 260 257 256 254 255 257 258 259 259 259 261 264 269 273 277 274 271 270 276 278 278 276 273 253 262 260 259 259 259 253 258 263 283 329 311 291 301 324 316 314 305
264 265 263 261 258 259 259 260 260 260 259 260 263 265 268 271 272 274 275 272 270 271 271 271 270 268 251 256 259 264 267 268 268 274 293 308 302 293 283 288 314 314 311
267 265 263 263 263 261 260 260 263 262 263 262 265 266 267 268 270 272 272 273 272 268 268 268 266 265 263 256 249 255 258 264 273 278 284 289 287 282 284 275 282 283 299
266 267 268 269 266 265 263 263 265 265 266 267 268 270 269 268 270 272 271 271 270 268 267 266 265 265 262 260 259 253 253 258 261 266 272 278 277 279 281 281 272 277 280
265 266 269 271 269 267 266 266 266 267 268 271 272 272 271 270 269 269 269 271 270 268 267 266 264 264 263 262 260 260 261 255 255 259 265 272 272 272 270 280 275 272 276
266 267 267 270 270 269 270 270 270 270 270 270 273 273 274 274 271 270 272 272 269 269 268 269 266 264 262 262 262 261 261 262 259 257 258 262 268 272 266 267 264 269 261
268 267 267 270 272 271 269 269 269 271 272 270 267 271 281 282 278 277 276 274 275 273 268 269 268 265 263 262 260 261 261 260 261 262 262 262 265 269 268 267 268 266 257
273 273 270 270 271 273 272 272 272 270 272 274 269 259 262 264 284 288 282 277 275 269 270 272 272 269 263 261 261 260 260 260 261 261 262 263 262 267 265 260 265 267 269
284 283 280 276 273 274 273 273 273 273 269 268 273 267 262 262 267 283 281 275 267 267 270 271 271 275 270 265 263 262 264 261 259 257 259 260 263 266 267 272 265 264 267
284 286 285 285 281 277 278 275 274 273 271 269 267 270 273 267 264 259 272 274 276 275 275 273 274 273 270 268 263 264 271 264 261 258 257 259 260 263 268 268 266 264 263
287 286 287 286 287 285 283 282 279 276 277 273 270 268 268 265 267 263 258 273 270 281 283 282 278 275 272 269 265 265 264 265 259 254 257 257 259 263 268 266 266 270 267
289 291 292 292 290 288 288 287 283 281 278 275 273 271 270 270 269 269 264 264 269 278 278 280 281 282 280 275 270 265 261 259 258 256 257 259 257 262 262 263 263 267 274
292 294 293 295 295 295 292 290 286 283 281 277 276 274 273 273 273 270 268 265 265 268 275 276 282 282 279 277 277 274 265 260 255 257 257 255 257 258 258 263 265 272 276
295 289 288 288 290 291 290 289 288 288 286 285 281 279 277 275 274 271 269 267 262 263 265 270 277 282 280 280 277 273 267 265 256 259 257 256 256 257 260 262 267 268 271
320 312 298 289 287 287 288 290 287 288 288 287 284 279 278 278 275 274 272 269 266 264 262 264 270 275 280 280 275 272 271 263 259 258 254 252 249 250 256 262 265 272 273
342 332 317 306 302 297 291 286 285 284 286 287 285 287 286 283 276 274 272 269 267 267 262 268 268 272 273 272 270 270 275 263 262 257 253 251 251 252 257 261 265 273 273
343 333 329 326 316 306 299 289 286 283 281 282 284 281 285 284 282 280 274 271 268 267 266 267 268 267 267 264 268 261 264 259 261 256 253 252 250 250 259 262 264 273 271
333 330 327 324 323 320 318 307 297 288 282 280 279 278 276 280 278 279 275 271 270 269 264 265 265 264 260 264 262 257 255 258 256 249 253 255 247 249 259 258 270 274 272
327 325 324 322 320 318 318 315 311 300 289 281 278 278 277 274 271 271 277 275 276 269 261 257 257 255 257 257 259 251 256 255 254 244 252 247 246 252 252 258 270 274 266
326 323 320 317 316 315 316 313 307 302 299 294 287 280 275 274 274 275 275 274 273 266 259 249 252 256 250 249 251 256 259 251 253 240 254 240 242 247 247 257 268 272 252
324 322 320 319 315 313 311 308 304 301 296 293 294 292 287 280 274 272 273 273 273 269 267 250 244 244 254 262 260 261 252 239 245 244 243 240 243 241 248 256 263 258 248
323 320 319 317 315 312 311 307 303 298 296 295 292 292 291 288 281 274 273 275 271 269 272 263 258 264 259 259 259 258 249 257 253 255 244 236 238 237 245 247 254 248 244
322 320 317 316 314 313 313 310 306 301 297 293 291 290 289 289 286 280 276 272 271 269 268 268 261 261 264 266 264 261 260 255 243 239 235 238 231 234 239 241 247 242 242
324 321 318 316 315 312 314 314 312 305 300 296 293 289 288 286 285 282 272 275 275 272 274 272 268 266 268 264 259 253 243 238 236 231 228 228 227 229 231 236 238 236 239
331 328 322 318 318 317 317 316 319 311 302 301 298 294 288 286 285 281 276 266 268 269 271 272 269 266 264 260 254 250 245 238 230 229 227 224 224 221 219 229 229 231 229
Wind_Speed_850mb
35 35 35 35 36 36 34 34 34 34 34 34 35 36 35 31 31 32 28 24 23 21 19 17 21 25 25 23 22 18 15 14 11 7 8 10 11 10 10 13 13 14 16
39 39 39 39 38 39 37 38 40 40 41 41 41 41 40 38 34 33 31 29 28 26 25 23 19 28 29 25 27 24 18 18 18 15 6 11 14 12 14 15 17 20 20
43 42 42 42 41 40 41 44 45 47 49 49 50 47 45 43 41 37 35 36 35 33 31 30 27 25 29 31 31 30 29 29 29 28 20 20 20 18 16 15 15 20 21
49 48 47 46 42 43 46 50 48 51 53 54 54 52 51 48 46 45 42 41 43 42 38 36 35 34 33 33 35 35 34 35 36 37 34 30 35 31 26 21 19 22 22
59 56 54 51 47 48 51 53 54 55 59 58 58 57 56 55 53 52 53 52 49 51 49 45 44 42 42 42 42 41 41 40 41 44 44 43 42 42 41 40 33 28 31
62 65 62 57 54 54 57 58 60 60 62 63 62 63 63 61 61 61 63 60 60 57 56 56 53 52 49 49 49 51 50 46 46 47 49 47 51 51 54 53 52 48 44
64 66 68 65 62 62 62 63 62 65 66 65 64 70 73 71 71 70 70 67 68 64 61 58 63 62 59 56 56 56 55 55 52 50 47 50 52 54 56 54 66 64 63
69 67 68 72 72 70 68 69 67 69 72 70 69 68 63 68 73 66 64 66 64 65 67 64 65 66 66 64 62 61 61 60 58 54 50 49 50 53 55 56 52 61 70
71 71 71 71 74 78 77 73 73 70 73 76 74 68 25 33 45 47 39 40 39 41 44 47 51 56 62 65 63 62 64 63 61 57 57 56 55 57 54 53 56 55 52
67 64 65 69 71 76 80 80 77 78 75 76 78 82 81 82 62 62 52 35 39 48 45 46 49 51 51 55 56 58 59 62 61 62 62 64 62 60 61 56 55 54 53
72 70 65 63 68 71 72 74 79 80 82 86 85 81 82 86 85 88 79 77 80 79 72 64 58 56 53 55 57 57 56 60 62 62 60 63 65 64 60 54 51 52 59
74 74 73 71 67 68 70 73 73 77 81 82 88 92 90 77 74 78 83 97 90 95 88 81 74 69 64 64 64 58 60 56 60 61 62 61 65 64 66 50 57 56 60
66 66 65 68 68 65 67 70 74 75 76 81 81 87 90 96 90 92 83 83 85 92 88 89 87 77 70 65 61 61 68 69 62 68 70 69 69 69 63 56 56 52 58
55 59 61 62 62 59 58 62 69 74 75 80 81 82 85 88 89 91 92 87 81 78 87 94 90 87 77 68 63 57 61 64 66 68 69 70 70 65 59 53 55 56 56
43 49 54 58 60 60 61 60 68 71 72 77 81 80 83 85 85 88 90 88 88 73 76 73 81 83 77 69 65 58 58 63 59 64 63 63 62 59 57 59 60 60 57
34 37 42 49 56 59 60 61 64 67 73 77 82 85 83 82 83 84 87 90 90 93 94 79 88 85 81 73 67 65 63 61 62 64 66 63 62 60 62 61 56 57 59
39 40 42 43 43 48 52 58 66 70 73 76 79 84 86 84 91 89 88 88 90 91 103 96 91 86 80 77 71 70 68 62 63 70 67 63 64 60 61 58 52 59 64
45 47 47 46 46 47 46 47 56 62 69 78 87 84 87 88 89 90 96 96 99 92 95 104 95 90 84 77 77 70 70 70 68 74 68 65 70 68 62 62 51 57 57
50 51 53 53 52 52 50 49 53 57 65 73 77 82 93 89 98 92 95 100 99 102 107 100 100 92 84 79 71 81 72 75 66 75 72 69 71 67 66 59 56 58 62
60 59 59 60 58 57 55 54 54 58 64 68 73 79 83 89 96 91 94 98 97 104 109 110 99 95 89 85 86 75 71 81 78 78 74 75 77 66 67 60 55 58 57
67 66 67 66 65 64 61 60 60 64 69 73 76 78 79 85 87 87 101 98 98 106 105 102 96 98 100 91 84 83 87 75 75 80 74 80 77 73 67 61 57 58 53
75 77 78 77 75 74 68 66 67 72 73 77 79 79 82 85 85 84 88 93 99 108 104 106 97 102 101 86 81 80 93 82 78 84 83 83 78 72 62 60 55 56 55
91 89 85 85 87 86 80 76 72 77 81 83 82 82 84 82 85 87 84 92 89 97 115 105 111 106 95 80 74 78 83 82 86 78 84 86 79 73 65 57 55 60 59
94 98 99 98 98 93 87 85 84 84 85 86 85 85 85 86 83 82 81 87 95 98 99 97 117 121 97 96 82 76 68 79 86 79 78 77 77 72 65 58 59 65 64
96 95 95 96 98 101 97 88 86 91 95 94 88 85 85 88 83 77 78 89 93 100 99 97 94 98 118 87 94 83 75 75 79 84 82 78 73 67 64 60 61 67 64
91 92 93 91 91 91 86 83 74 76 90 96 96 94 86 86 85 78 75 84 99 106 101 95 106 98 102 101 85 83 77 84 86 80 84 81 76 67 55 64 67 66 60
Wind_Direction_850mb
259 259 258 255 253 250 251 250 252 254 257 261 262 267 271 273 270 272 270 278 287 289 284 281 258 271 266 259 265 259 252 248 249 258 288 314 299 298 299 298 301 294 284
263 263 260 257 256 254 255 257 258 259 259 259 261 264 269 273 277 274 271 270 276 278 278 276 273 253 262 260 259 259 259 253 258 263 283 329 311 291 301 324 316 314 305
264 265 263 261 258 259 259 260 260 260 259 260 263 265 268 271 272 274 275 272 270 271 271 271 270 268 251 256 259 264 267 268 268 274 293 308 302 293 283 288 314 314 311
267 265 263 263 263 261 260 260 263 262 263 262 265 266 267 268 270 272 272 273 272 268 268 268 266 265 263 256 249 255 258 264 273 278 284 289 287 282 284 275 282 283 299
266 267 268 269 266 265 263 263 265 265 266 267 268 270 269 268 270 272 271 271 270 268 267 266 265 265 262 260 259 253 253 258 261 266 272 278 277 279 281 281 272 277 280
265 266 269 271 269 267 266 266 266 267 268 271 272 272 271 270 269 269 269 271 270 268 267 266 264 264 263 262 260 260 261 255 255 259 265 272 272 272 270 280 275 272 276
266 267 267 270 270 269 270 270 270 270 270 270 273 273 274 274 271 270 272 272 269 269 268 269 266 264 262 262 262 261 261 262 259 257 258 262 268 272 266 267 264 269 261
268 267 267 270 272 271 269 269 269 271 272 270 267 271 281 282 278 277 276 274 275 273 268 269 268 265 263 262 260 261 261 260 261 262 262 262 265 269 268 267 268 266 257
273 273 270 270 271 273 272 272 272 270 272 274 269 259 262 264 284 288 282 277 275 269 270 272 272 269 263 261 261 260 260 260 261 261 262 263 262 267 265 260 265 267 269
284 283 280 276 273 274 273 273 273 273 269 268 273 267 262 262 267 283 281 275 267 267 270 271 271 275 270 265 263 262 264 261 259 257 259 260 263 266 267 272 265 264 267
284 286 285 285 281 277 278 275 274 273 271 269 267 270 273 267 264 259 272 274 276 275 275 273 274 273 270 268 263 264 271 264 261 258 257 259 260 263 268 268 266 264 263
287 286 287 286 287 285 283 282 279 276 277 273 270 268 268 265 267 263 258 273 270 281 283 282 278 275 272 269 265 265 264 265 259 254 257 257 259 263 268 266 266 270 267
289 291 292 292 290 288 288 287 283 281 278 275 273 271 270 270 269 269 264 264 269 278 278 280 281 282 280 275 270 265 261 259 258 256 257 259 257 262 262 263 263 267 274
292 294 293 295 295 295 292 290 286 283 281 277 276 274 273 273 273 270 268 265 265 268 275 276 282 282 279 277 277 274 265 260 255 257 257 255 257 258 258 263 265 272 276
295 289 288 288 290 291 290 289 288 288 286 285 281 279 277 275 274 271 269 267 262 263 265 270 277 282 280 280 277 273 267 265 256 259 257 256 256 257 260 262 267 268 271
320 312 298 289 287 287 288 290 287 288 288 287 284 279 278 278 275 274 272 269 266 264 262 264 270 275 280 280 275 272 271 263 259 258 254 252 249 250 256 262 265 272 273
342 332 317 306 302 297 291 286 285 284 286 287 285 287 286 283 276 274 272 269 267 267 262 268 268 272 273 272 270 270 275 263 262 257 253 251 251 252 257 261 265 273 273
343 333 329 326 316 306 299 289 286 283 281 282 284 281 285 284 282 280 274 271 268 267 266 267 268 267 267 264 268 261 264 259 261 256 253 252 250 250 259 262 264 273 271
333 330 327 324 323 320 318 307 297 288 282 280 279 278 276 280 278 279 275 271 270 269 264 265 265 264 260 264 262 257 255 258 256 249 253 255 247 249 259 258 270 274 272
327 325 324 322 320 318 318 315 311 300 289 281 278 278 277 274 271 271 277 275 276 269 261 257 257 255 257 257 259 251 256 255 254 244 252 247 246 252 252 258 270 274 266
326 323 320 317 316 315 316 313 307 302 299 294 287 280 275 274 274 275 275 274 273 266 259 249 252 256 250 249 251 256 259 251 253 240 254 240 242 247 247 257 268 272 252
324 322 320 319 315 313 311 308 304 301 296 293 294 292 287 280 274 272 273 273 273 269 267 250 244 244 254 262 260 261 252 239 245 244 243 240 243 241 248 256 263 258 248
323 320 319 317 315 312 311 307 303 298 296 295 292 292 291 288 281 274 273 275 271 269 272 263 258 264 259 259 259 258 249 257 253 255 244 236 238 237 245 247 254 248 244
322 320 317 316 314 313 313 310 306 301 297 293 291 290 289 289 286 280 276 272 271 269 268 268 261 261 264 266 264 261 260 255 243 239 235 238 231 234 239 241 247 242 242
324 321 318 316 315 312 314 314 312 305 300 296 293 289 288 286 285 282 272 275 275 272 274 272 268 266 268 264 259 253 243 238 236 231 228 228 227 229 231 236 238 236 239
331 328 322 318 318 317 317 316 319 311 302 301 298 294 288 286 285 281 276 266 268 269 271 272 269 266 264 260 254 250 245 238 230 229 227 224 224 221 219 229 229 231 229